FW3734 Weather Reports


time (UTC)temp
C
wind
direction
speed
KPH
gust
KPH
rain 1hr
cm
rain 24hr
cm
rain mn
cm
humidity
%
barometer
mb
20260901014512 31 313 0.0 0.0 0.00 0.00 0.00 58 1014.2
20260901013012 31 313 0.0 0.0 0.00 0.00 0.00 56 1014.1
20260901011513 31 315 0.0 0.0 0.00 0.00 0.00 53 1013.9
20260901010016 32 315 0.0 0.0 0.00 0.00 0.00 51 1013.9
20260901004509 32 315 0.0 0.0 0.00 0.00 0.00 48 1013.7
20260901003015 33 315 0.0 0.0 0.00 0.00 0.00 47 1013.6
20260901001508 34 315 0.0 0.0 0.00 0.00 0.00 46 1013.6
20260901000022 35 315 0.0 0.0 0.00 0.00 0.00 45 1013.6
20260831234508 35 315 0.0 0.0 0.00 0.00 0.00 44 1013.6
20260831233008 35 257 0.0 0.0 0.00 0.00 0.00 43 1013.7
20260831231507 35 219 0.0 0.0 0.00 0.00 0.00 42 1013.7
20260831230014 36 215 0.0 1.6 0.00 0.00 0.00 41 1013.6
20260831224505 36 297 0.0 4.8 0.00 0.00 0.00 41 1013.5
20260831223005 36 209 0.0 1.6 0.00 0.00 0.00 42 1013.4
20260831221504 36 267 0.0 8.0 0.00 0.00 0.00 41 1013.6
20260831220002 36 225 0.0 6.4 0.00 0.00 0.00 41 1013.7
20260831214502 36 202 0.0 0.0 0.00 0.00 0.00 41 1013.7
20260831213001 36 162 0.0 1.6 0.00 0.00 0.00 39 1013.6
20260831211501 36 272 0.0 0.0 0.00 0.00 0.00 40 1013.6
20260831210100 37 212 0.0 3.2 0.00 0.00 0.00 40 1013.7
20260831204558 37 209 0.0 1.6 0.00 0.00 0.00 39 1013.8
20260831203104 37 275 0.0 0.0 0.00 0.00 0.00 42 1013.8
20260831201554 36 325 0.0 1.6 0.00 0.00 0.00 42 1014.1
20260831200053 36 229 0.0 1.6 0.00 0.00 0.00 42 1014.2
20260831194601 36 257 0.0 1.6 0.00 0.00 0.00 43 1014.4
20260831193043 35 256 0.0 4.8 0.00 0.00 0.00 43 1014.5
20260831191539 35 194 0.0 4.8 0.00 0.00 0.00 45 1014.7
20260831190045 35 192 0.0 4.8 0.00 0.00 0.00 46 1014.8
20260831184534 34 325 0.0 0.0 0.00 0.00 0.00 47 1015.0
20260831183029 34 205 0.0 4.8 0.00 0.00 0.00 47 1015.2
20260831181526 33 348 0.0 8.0 0.00 0.00 0.00 48 1015.4
20260831180023 33 184 0.0 8.0 0.00 0.00 0.00 49 1015.6
20260831174519 33 195 0.0 3.2 0.00 0.00 0.00 48 1015.8
20260831173018 33 252 0.0 9.7 0.00 0.00 0.00 49 1016.0
20260831171515 33 215 0.0 1.6 0.00 0.00 0.00 49 1016.1
20260831170011 33 315 0.0 8.0 0.00 0.00 0.00 49 1016.4
20260831164515 32 192 0.0 1.6 0.00 0.00 0.00 51 1016.5
20260831163003 32 211 0.0 6.4 0.00 0.00 0.00 52 1016.6
20260831161559 31 209 0.0 3.2 0.00 0.00 0.00 52 1016.6
20260831160103 31 208 0.0 1.6 0.00 0.00 0.00 53 1016.6
20260831154555 30 251 0.0 12.9 0.00 0.00 0.00 54 1016.6
20260831153049 30 224 0.0 4.8 0.00 0.00 0.00 54 1016.7
20260831151547 30 221 0.0 9.7 0.00 0.00 0.00 54 1016.6
20260831150043 29 173 0.0 1.6 0.00 0.00 0.00 56 1016.4
20260831144549 28 216 0.0 11.3 0.00 0.00 0.00 58 1016.4
20260831143035 28 205 0.0 6.4 0.00 0.00 0.00 59 1016.2
20260831141531 27 220 0.0 0.0 0.00 0.00 0.00 60 1016.2
20260831140028 26 198 0.0 0.0 0.00 0.00 0.00 62 1016.2
20260831134525 26 223 0.0 0.0 0.00 0.00 0.00 62 1016.2
20260831133031 25 192 0.0 0.0 0.00 0.00 0.00 64 1016.1
20260831131521 25 192 0.0 0.0 0.00 0.00 0.00 65 1016.1
20260831130019 24 178 0.0 0.0 0.00 0.00 0.00 68 1016.1
20260831124520 23 178 0.0 0.0 0.00 0.00 0.00 69 1015.9
20260831123016 23 178 0.0 0.0 0.00 0.00 0.00 69 1015.7
20260831121514 23 178 0.0 0.0 0.00 0.00 0.00 69 1015.5
20260831120013 22 178 0.0 0.0 0.00 0.00 0.00 69 1015.3
20260831114512 22 178 0.0 0.0 0.00 0.00 0.00 68 1015.3
20260831113012 23 178 0.0 0.0 0.00 0.00 0.00 68 1015.3
20260831111510 23 178 0.0 0.0 0.00 0.00 0.00 68 1015.2
20260831110009 23 178 0.0 0.0 0.00 0.00 0.00 68 1015.2
20260831104517 23 178 0.0 0.0 0.00 0.00 0.00 68 1015.2
20260831103009 22 178 0.0 0.0 0.00 0.00 0.00 68 1015.2
20260831101516 22 178 0.0 0.0 0.00 0.00 0.00 70 1015.1
20260831100005 22 178 0.0 0.0 0.00 0.00 0.00 69 1015.1
20260831094504 23 178 0.0 0.0 0.00 0.00 0.00 68 1015.0
20260831093002 23 178 0.0 0.0 0.00 0.00 0.00 66 1015.1
20260831091603 23 178 0.0 0.0 0.00 0.00 0.00 65 1015.0
20260831090056 23 178 0.0 0.0 0.00 0.00 0.00 63 1014.8
20260831084557 24 178 0.0 0.0 0.00 0.00 0.00 63 1014.7
20260831083053 24 178 0.0 0.0 0.00 0.00 0.00 62 1014.6
20260831081600 24 178 0.0 0.0 0.00 0.00 0.00 62 1014.4
20260831080115 25 178 0.0 0.0 0.00 0.00 0.00 62 1014.4
20260831074551 25 178 0.0 0.0 0.00 0.00 0.00 62 1014.4
20260831073110 25 178 0.0 0.0 0.00 0.00 0.00 61 1014.5
20260831071553 25 178 0.0 0.0 0.00 0.00 0.00 61 1014.6
20260831070047 25 178 0.0 0.0 0.00 0.00 0.00 61 1014.6
20260831064547 25 178 0.0 0.0 0.00 0.00 0.00 61 1014.7
20260831063046 25 136 0.0 3.2 0.00 0.00 0.00 62 1014.8
20260831061543 25 133 0.0 0.0 0.00 0.00 0.00 63 1014.9
20260831060045 25 132 0.0 0.0 0.00 0.00 0.00 64 1014.9
20260831054548 25 132 0.0 0.0 0.00 0.00 0.00 64 1014.9
20260831053044 25 132 0.0 0.0 0.00 0.00 0.00 64 1014.8
20260831051539 25 132 0.0 0.0 0.00 0.00 0.00 63 1014.8
20260831050034 25 132 0.0 0.0 0.00 0.00 0.00 63 1014.8
20260831044545 26 132 0.0 0.0 0.00 0.00 0.00 63 1014.7
20260831043033 26 132 0.0 0.0 0.00 0.00 0.00 62 1014.7
20260831041533 26 202 0.0 3.2 0.00 0.00 0.00 61 1014.7
20260831040033 26 127 0.0 6.4 0.00 0.00 0.00 61 1014.7
20260831034532 27 192 0.0 0.0 0.00 0.00 0.00 61 1014.7
20260831033038 27 140 0.0 1.6 0.00 0.00 0.00 60 1014.5
20260831031534 27 159 0.0 1.6 0.00 0.00 0.00 60 1014.5
20260831030030 27 148 0.0 0.0 0.00 0.00 0.00 59 1014.6
20260831024531 27 136 0.0 3.2 0.00 0.00 0.00 59 1014.5
20260831023030 28 144 0.0 0.0 0.00 0.00 0.00 57 1014.5
20260831021543 28 122 0.0 3.2 0.00 0.00 0.00 57 1014.4
20260831020029 28 140 0.0 0.0 0.00 0.00 0.00 56 1014.4